Regional Weather Roundup
Issued by NWS

Home | Current Version | Previous Version | Graphics & Text | Print | Product List | Glossary Off
Versions: 1 2 3 4 5 6 7 8 9 10 11 12 13 14 15 16 17 18 19 20 21 22 23 24 25 26 27 28 29 30 31 32 33 34 35 36 37 38 39 40 41 42 43 44 45 46 47 48 49 50

000
ASUS43 KLSX 202057
RWRMO

WEATHER SUMMARY FOR MISSOURI
NATIONAL WEATHER SERVICE SPRINGFIELD MO
400 PM CDT FRI APR 20 2018

NOTE: "FAIR" INDICATES FEW OR NO CLOUDS BELOW 12,000 FEET WITH NO
       SIGNIFICANT WEATHER AND/OR OBSTRUCTIONS TO VISIBILITY.
       CURRENT SKY AND/OR WEATHER CONDITIONS ARE NOT AVAILABLE FOR
       CHILLICOTHE AND FARMINGTON.

MOZ001>031-035>038-043-044-053-054-202200-
...NORTHERN AND WESTERN MISSOURI...

CITY           SKY/WX    TMP DP  RH WIND       PRES   REMARKS
KANSAS CTY INT MOSUNNY   61  27  27 E16       30.29F
LEE`S SUMMIT   CLOUDY    63  27  25 SE14G28   30.29F
ST JOSEPH      SUNNY     62  28  27 SE18      30.28F
CHILLICOTHE      N/A     63  28  26 SE13G20   30.33F

$$
MOZ066>068-077>081-088>096-101>105-202200-
...SOUTHWEST MISSOURI...

CITY           SKY/WX    TMP DP  RH WIND       PRES   REMARKS
SPRINGFIELD    CLOUDY    64  26  23 SE14G23   30.27F
JOPLIN         SUNNY     64  29  26 SE14      30.24F
BRANSON        PTSUNNY   63  27  25 SE9G21    30.29F

$$
MOZ032>034-039>042-045>050-055>058-069>072-202200-
...CENTRAL MISSOURI...

CITY           SKY/WX    TMP DP  RH WIND       PRES   REMARKS
COLUMBIA       NOT AVBL
JEFFERSON CITY CLOUDY    63  14  15 E13       30.34F
ROLLA          CLOUDY    65  17  15 E10G18    30.33F
SEDALIA        MOSUNNY   63  27  25 E14       30.32F
WARRENSBURG    CLOUDY    63  27  25 SE10G16   30.32F

$$
MOZ051-052-059>065-202200-
...EAST CENTRAL MISSOURI...

CITY           SKY/WX    TMP DP  RH WIND       PRES   REMARKS
ST LOUIS INTL  CLOUDY    62  24  23 E13       30.39F

$$
MOZ072>076-082>087-097>100-106>115-202200-
...SOUTH CENTRAL AND SOUTHEAST MISSOURI...

CITY           SKY/WX    TMP DP  RH WIND       PRES   REMARKS
CAPE GIRARDEAU FAIR      65  30  27 SE5       30.35F
POPLAR BLUFF   FAIR      64  30  27 E10G20    30.34F
WEST PLAINS    SUNNY     65  17  15 E12G24    30.31F

$$




USA.gov is the U.S. government's official web portal to all federal, state and local government web resources and services.